Weather History for Kalamata, Greece

Change the Weather History Date:

Monday, October 29, 2012

  Actual Average Record
Temperature  
Mean Temperature 70 °F -  
Max Temperature 78 °F 69 °F 78 °F (2004)
Min Temperature 57 °F 50 °F 42 °F (1996)
Cooling Degree Days 5    
Growing Degree Days 20 (Base 50)    
Moisture  
Dew Point 62 °F    
Average Humidity 69    
Maximum Humidity 88    
Minimum Humidity 53    
Precipitation  
Precipitation 0.00 in 0.18 in - ()
Sea Level Pressure  
Sea Level Pressure 29.74 in    
Wind  
Wind Speed 8 mph ()    
Max Wind Speed 20 mph    
Max Gust Speed 28 mph    
Visibility 5.7 miles    
Events Thunderstorm    
Averages and records for this station are not official NWS values.
T = Trace of Precipitation, MM = Missing Value Source: Averaged Metar Reports

Daily Weather History Graph

Daily Weather History Graph

Search for Another Location

Airport:

Trip Planner

Search our weather history database for the weather conditions in past years. The results will help you decide how hot, cold, wet, or windy it might be!

Date:

Astronomy

Oct. 29, 2012 Rise Set
Actual Time 6:53 AM EET 5:37 PM EET
Civil Twilight 6:26 AM EET 6:04 PM EET
Nautical Twilight 5:55 AM EET 6:34 PM EET
Astronomical Twilight 5:25 AM EET 7:04 PM EET
Moon 5:19 PM EET (10/29) 6:25 AM EET (10/29)
Length of Visible Light 11h 37m
Length of Day
10h 44m
Full, 100% of the Moon is Illuminated
Oct 29
Full
Oct 29
Full
Nov 7
Last Quarter
Nov 14
New
Nov 20
First Quarter

Hourly Weather History & Observations

Time (EET) Temp. Dew Point Humidity Pressure Visibility Wind Dir Wind Speed Gust Speed Precip Events Conditions
4:50 AM 75.2 °F 68.0 °F 78% 29.74 in 6.2 mi SSE 9.2 mph - N/A   Scattered Clouds
5:50 AM 75.2 °F 68.0 °F 78% 29.74 in 6.2 mi SSE 9.2 mph - N/A   Mostly Cloudy
6:20 AM 75.2 °F 68.0 °F 78% 29.68 in 6.2 mi SSE 12.7 mph - N/A   Mostly Cloudy
6:50 AM 75.2 °F 66.2 °F 73% 29.71 in 5.0 mi South 16.1 mph 27.6 mph N/A   Mostly Cloudy
7:20 AM 75.2 °F 66.2 °F 73% 29.68 in 5.0 mi SSE 13.8 mph - N/A   Scattered Clouds
7:50 AM 77.0 °F 66.2 °F 69% 29.71 in 5.0 mi South 12.7 mph - N/A Thunderstorm Thunderstorm
8:20 AM 77.0 °F 69.8 °F 78% 29.71 in 3.1 mi South 16.1 mph - N/A   Mostly Cloudy
8:50 AM 77.0 °F 69.8 °F 78% 29.71 in 3.1 mi South 18.4 mph - N/A   Mostly Cloudy
9:20 AM 77.0 °F 69.8 °F 78% 29.71 in 2.5 mi South 19.6 mph - N/A   Mostly Cloudy
9:50 AM 73.4 °F 68.0 °F 83% 29.74 in 3.1 mi West 6.9 mph - N/A   Scattered Clouds
10:20 AM 75.2 °F 66.2 °F 73% 29.74 in 6.2 mi Calm Calm - N/A   Scattered Clouds
10:50 AM 75.2 °F 66.2 °F 73% 29.74 in 6.2 mi Calm Calm - N/A   Scattered Clouds
11:20 AM 75.2 °F 64.4 °F 69% 29.74 in 6.2 mi North 4.6 mph - N/A   Scattered Clouds
11:50 AM 75.2 °F 64.4 °F 69% 29.74 in 6.2 mi North 4.6 mph - N/A   Scattered Clouds
12:20 PM 77.0 °F 62.6 °F 61% 29.74 in 6.2 mi North 4.6 mph - N/A   Scattered Clouds
12:50 PM 77.0 °F 62.6 °F 61% 29.74 in 6.2 mi NNE 8.1 mph - N/A   Scattered Clouds
1:20 PM 78.8 °F 62.6 °F 57% 29.71 in 6.2 mi North 4.6 mph - N/A   Scattered Clouds
1:50 PM 78.8 °F 62.6 °F 57% 29.71 in 6.2 mi NNE 5.8 mph - N/A   Scattered Clouds
2:20 PM 77.0 °F 60.8 °F 57% 29.71 in 6.2 mi NNE 9.2 mph - N/A   Scattered Clouds
2:50 PM 77.0 °F 59.0 °F 54% 29.74 in 6.2 mi NNE 6.9 mph - N/A   Scattered Clouds
3:20 PM 75.2 °F 59.0 °F 57% 29.74 in 6.2 mi NW 6.9 mph - N/A   Scattered Clouds
3:50 PM 71.6 °F 60.8 °F 69% 29.74 in 6.2 mi North 8.1 mph - N/A   Scattered Clouds
4:20 PM 73.4 °F 60.8 °F 65% 29.74 in 6.2 mi NW 6.9 mph - N/A   Scattered Clouds
4:50 PM 73.4 °F 55.4 °F 53% 29.77 in 6.2 mi NNW 4.6 mph - N/A   Scattered Clouds
5:20 PM 69.8 °F 55.4 °F 60% 29.77 in 6.2 mi WNW 8.1 mph - N/A   Scattered Clouds
5:50 PM 68.0 °F 55.4 °F 64% 29.77 in 6.2 mi WNW 9.2 mph - N/A   Scattered Clouds
6:20 PM 64.4 °F 55.4 °F 73% 29.80 in 6.2 mi Calm Calm - N/A   Partly Cloudy
6:50 PM 64.4 °F 55.4 °F 73% 29.80 in 6.2 mi Calm Calm - N/A   Partly Cloudy
7:20 PM 62.6 °F 53.6 °F 72% 29.80 in 6.2 mi Calm Calm - N/A   Partly Cloudy
7:50 PM 62.6 °F 53.6 °F 72% 29.80 in 6.2 mi Calm Calm - N/A   Partly Cloudy
10:50 PM 57.2 °F 53.6 °F 88% 29.86 in 6.2 mi Calm Calm - N/A   Scattered Clouds